Location: Newark
(33.6439°N, 114.9881°W)
Time: 11:47:57
(UTC+00:00)

N. Korean satellite - Visible Passes

Search period start: 19 October 2019 00:00
Search period end: 29 October 2019 00:00
Orbit: 455 x 508 km, 97.2° (Epoch: 18 October)

Date Brightness Start Highest point End Pass type
(mag) Time Alt. Az. Time Alt. Az. Time Alt. Az.
19 Oct 9.9 01:40:03 10° SW 01:42:27 18° W 01:44:53 10° NW visible
19 Oct 8.2 13:09:00 10° NNE 13:12:26 40° E 13:15:54 10° S visible
20 Oct 9.8 12:44:28 10° NE 12:47:04 18° E 12:49:40 10° SE visible
22 Oct 10.6 01:59:32 10° W 02:00:02 10° W 02:00:31 10° W visible
23 Oct 9.4 01:31:48 10° SSW 01:34:34 23° W 01:37:23 10° NW visible
23 Oct 8.8 13:01:18 10° NNE 13:04:36 31° E 13:07:55 10° SSE visible
24 Oct 10.1 12:37:04 10° ENE 12:39:12 15° E 12:41:21 10° SE visible
26 Oct 10.1 01:50:22 10° SW 01:52:06 13° W 01:53:51 10° WNW visible
26 Oct 7.4 13:18:27 10° NNE 13:22:05 58° E 13:25:44 10° S visible
27 Oct 8.8 01:23:38 10° SSW 01:26:40 29° W 01:29:44 10° NW visible
27 Oct 9.2 12:53:38 10° NE 12:56:44 25° E 12:59:50 10° SSE visible
28 Oct 10.4 12:29:53 10° ENE 12:31:18 12° E 12:32:43 10° ESE visible
